Time,TemperatureF,DewpointF,PressureIn,WindDirection,WindDirectionDegrees,WindSpeedMPH,WindSpeedGustMPH,Humidity,HourlyPrecipIn,Conditions,Clouds,dailyrainin,SoftwareType,DateUTC
2013-05-01 00:02:00,55.0,41.0,29.95,NNW,329,9.0,12.0,58,0.00,,,0.00,,2013-05-01 05:02:00,
2013-05-01 00:11:00,55.0,41.0,29.97,NNE,18,3.0,14.0,58,0.00,,,0.00,,2013-05-01 05:11:00,
2013-05-01 00:21:00,55.0,41.0,29.97,NNE,18,3.0,14.0,58,0.00,,,0.00,,2013-05-01 05:21:00,
2013-05-01 00:32:00,54.0,39.0,29.96,NNE,26,7.0,15.0,57,0.00,,,0.00,,2013-05-01 05:32:00,
2013-05-01 00:41:00,54.0,40.0,29.97,WSW,246,4.0,13.0,58,0.00,,,0.00,,2013-05-01 05:41:00,
2013-05-01 00:52:00,54.0,40.0,29.97,WSW,246,4.0,13.0,58,0.00,,,0.00,,2013-05-01 05:52:00,
2013-05-01 01:02:00,54.0,40.0,29.97,WNW,282,0.0,8.0,59,0.00,,,0.00,,2013-05-01 06:02:00,
2013-05-01 01:11:00,54.0,40.0,29.97,NNE,19,4.0,7.0,60,0.00,,,0.00,,2013-05-01 06:11:00,
2013-05-01 01:22:00,54.0,40.0,29.97,NNE,19,4.0,7.0,60,0.00,,,0.00,,2013-05-01 06:22:00,
2013-05-01 01:32:00,53.0,39.0,29.98,NNE,14,7.0,17.0,59,0.00,,,0.00,,2013-05-01 06:32:00,
2013-05-01 01:42:00,53.0,39.0,29.98,NNE,14,7.0,17.0,59,0.00,,,0.00,,2013-05-01 06:42:00,
2013-05-01 01:52:00,53.0,39.0,30.00,NNE,25,6.0,14.0,59,0.00,,,0.00,,2013-05-01 06:52:00,
2013-05-01 02:01:00,53.0,39.0,30.02,North,358,6.0,11.0,60,0.00,,,0.00,,2013-05-01 07:01:00,
2013-05-01 02:11:00,53.0,39.0,30.02,North,358,6.0,11.0,60,0.00,,,0.00,,2013-05-01 07:11:00,
2013-05-01 02:21:00,53.0,40.0,30.02,North,352,0.0,13.0,62,0.00,,,0.00,,2013-05-01 07:21:00,
2013-05-01 02:32:00,52.0,40.0,30.03,NNW,341,8.0,14.0,63,0.00,,,0.00,,2013-05-01 07:32:00,
2013-05-01 02:41:00,52.0,40.0,30.03,NNW,341,8.0,14.0,63,0.00,,,0.00,,2013-05-01 07:41:00,
2013-05-01 02:52:00,52.0,39.0,30.04,North,5,2.0,12.0,62,0.00,,,0.00,,2013-05-01 07:52:00,
2013-05-01 03:01:00,51.0,39.0,30.05,NW,324,8.0,10.0,63,0.00,,,0.00,,2013-05-01 08:01:00,
2013-05-01 03:11:00,51.0,39.0,30.05,NW,324,8.0,10.0,63,0.00,,,0.00,,2013-05-01 08:11:00,
2013-05-01 03:21:00,51.0,39.0,30.06,East,91,0.0,9.0,64,0.00,,,0.00,,2013-05-01 08:21:00,
2013-05-01 03:31:00,50.0,40.0,30.06,NW,320,0.0,10.0,68,0.00,,,0.00,,2013-05-01 08:31:00,
2013-05-01 03:42:00,50.0,40.0,30.06,NW,320,0.0,10.0,68,0.00,,,0.00,,2013-05-01 08:42:00,
2013-05-01 03:53:00,49.0,40.0,30.07,North,11,3.0,7.0,70,0.00,,,0.00,,2013-05-01 08:53:00,
2013-05-01 04:01:00,49.0,40.0,30.07,WNW,293,0.0,0.0,71,0.00,,,0.00,,2013-05-01 09:01:00,
2013-05-01 04:11:00,48.0,39.0,30.07,North,11,5.0,5.0,72,0.00,,,0.00,,2013-05-01 09:11:00,
2013-05-01 04:21:00,48.0,39.0,30.07,North,11,5.0,5.0,72,0.00,,,0.00,,2013-05-01 09:21:00,
2013-05-01 04:33:00,48.0,40.0,30.08,North,350,2.0,8.0,73,0.00,,,0.00,,2013-05-01 09:33:00,
2013-05-01 04:42:00,48.0,40.0,30.08,North,350,2.0,8.0,73,0.00,,,0.00,,2013-05-01 09:42:00,
2013-05-01 04:53:00,46.0,39.0,30.09,North,5,9.0,15.0,76,0.00,,,0.00,,2013-05-01 09:53:00,
2013-05-01 05:02:00,45.0,39.0,30.08,North,1,8.0,13.0,78,0.00,,,0.00,,2013-05-01 10:02:00,
2013-05-01 05:12:00,44.0,39.0,30.11,WSW,247,0.0,9.0,83,0.00,,,0.00,,2013-05-01 10:12:00,
2013-05-01 05:22:00,44.0,39.0,30.11,WSW,247,0.0,9.0,83,0.00,,,0.00,,2013-05-01 10:22:00,
2013-05-01 05:33:00,44.0,39.0,30.11,NNE,28,0.0,4.0,84,0.02,,,0.02,,2013-05-01 10:33:00,
2013-05-01 05:42:00,44.0,39.0,30.11,NNE,28,0.0,4.0,84,0.02,,,0.02,,2013-05-01 10:42:00,
2013-05-01 05:53:00,43.0,41.0,30.14,SW,234,1.0,5.0,92,0.04,,,0.04,,2013-05-01 10:53:00,
2013-05-01 06:02:00,42.0,41.0,30.15,North,358,0.0,7.0,98,0.06,,,0.06,,2013-05-01 11:02:00,
2013-05-01 06:11:00,41.0,41.0,30.14,NNW,338,0.0,8.0,99,0.16,,,0.16,,2013-05-01 11:11:00,
2013-05-01 06:22:00,41.0,41.0,30.14,NNW,338,0.0,8.0,99,0.16,,,0.16,,2013-05-01 11:22:00,
2013-05-01 06:32:00,41.0,41.0,30.17,SW,220,3.0,6.0,99,0.16,,,0.18,,2013-05-01 11:32:00,
2013-05-01 06:42:00,40.0,39.0,30.20,NW,322,0.0,0.0,97,0.18,,,0.22,,2013-05-01 11:42:00,
2013-05-01 06:51:00,40.0,39.0,30.20,NW,322,0.0,0.0,97,0.18,,,0.22,,2013-05-01 11:51:00,
2013-05-01 07:01:00,40.0,39.0,30.21,WNW,302,0.0,8.0,98,0.12,,,0.18,,2013-05-01 12:01:00,
2013-05-01 07:11:00,39.0,39.0,30.21,SSW,199,0.0,0.0,99,0.04,,,0.20,,2013-05-01 12:11:00,
2013-05-01 07:21:00,39.0,39.0,30.21,SSW,199,0.0,0.0,99,0.04,,,0.20,,2013-05-01 12:21:00,
2013-05-01 07:31:00,39.0,39.0,30.23,NNW,333,0.0,5.0,99,0.02,,,0.20,,2013-05-01 12:31:00,
2013-05-01 07:41:00,39.0,39.0,30.22,NNW,338,5.0,13.0,99,0.00,,,0.22,,2013-05-01 12:41:00,
2013-05-01 07:52:00,39.0,39.0,30.22,NNW,338,5.0,13.0,99,0.00,,,0.22,,2013-05-01 12:52:00,
2013-05-01 08:01:00,39.0,39.0,30.23,SW,220,3.0,10.0,99,0.04,,,0.22,,2013-05-01 13:01:00,
2013-05-01 08:11:00,39.0,39.0,30.23,SW,220,3.0,10.0,99,0.04,,,0.22,,2013-05-01 13:11:00,
2013-05-01 08:21:00,38.0,37.0,30.25,North,8,4.0,12.0,97,0.02,,,0.22,,2013-05-01 13:21:00,
2013-05-01 08:31:00,38.0,37.0,30.27,NE,37,9.0,11.0,98,0.02,,,0.22,,2013-05-01 13:31:00,
2013-05-01 08:42:00,38.0,37.0,30.27,NE,37,9.0,11.0,98,0.02,,,0.22,,2013-05-01 13:42:00,
2013-05-01 08:52:00,38.0,38.0,30.27,North,358,6.0,11.0,99,0.00,,,0.22,,2013-05-01 13:52:00,
2013-05-01 09:02:00,36.0,36.0,30.27,NE,40,13.0,16.0,99,0.00,,,0.22,,2013-05-01 14:02:00,
2013-05-01 09:11:00,36.0,36.0,30.27,NE,40,13.0,16.0,99,0.00,,,0.22,,2013-05-01 14:11:00,
2013-05-01 09:21:00,34.0,34.0,30.26,NNE,18,11.0,13.0,99,0.00,,,0.22,,2013-05-01 14:21:00,
2013-05-01 09:32:00,35.0,35.0,30.27,NNE,19,0.0,6.0,99,0.00,,,0.22,,2013-05-01 14:32:00,
2013-05-01 09:42:00,35.0,35.0,30.27,NNE,19,0.0,6.0,99,0.00,,,0.22,,2013-05-01 14:42:00,
2013-05-01 09:52:00,34.0,34.0,30.27,North,358,8.0,16.0,99,0.00,,,0.22,,2013-05-01 14:52:00,
2013-05-01 10:01:00,34.0,34.0,30.27,North,11,0.0,10.0,99,0.00,,,0.22,,2013-05-01 15:01:00,
2013-05-01 10:11:00,34.0,34.0,30.28,NNE,23,7.0,15.0,99,0.10,,,0.32,,2013-05-01 15:11:00,
2013-05-01 10:21:00,34.0,34.0,30.28,NNE,23,7.0,15.0,99,0.10,,,0.32,,2013-05-01 15:21:00,
2013-05-01 10:33:00,34.0,34.0,30.27,North,11,5.0,16.0,99,0.10,,,0.32,,2013-05-01 15:33:00,
2013-05-01 10:42:00,34.0,34.0,30.27,North,11,5.0,16.0,99,0.10,,,0.32,,2013-05-01 15:42:00,
2013-05-01 10:53:00,33.0,33.0,30.26,NNW,344,4.0,13.0,99,0.10,,,0.32,,2013-05-01 15:53:00,
2013-05-01 11:03:00,34.0,34.0,30.27,ENE,57,0.0,15.0,99,0.10,,,0.32,,2013-05-01 16:03:00,
2013-05-01 11:12:00,34.0,34.0,30.31,NNW,341,4.0,13.0,99,0.00,,,0.32,,2013-05-01 16:12:00,
2013-05-01 11:22:00,34.0,34.0,30.31,NNW,341,4.0,13.0,99,0.00,,,0.32,,2013-05-01 16:22:00,
2013-05-01 11:31:00,34.0,34.0,30.32,North,358,9.0,14.0,99,0.00,,,0.32,,2013-05-01 16:31:00,
2013-05-01 11:42:00,34.0,34.0,30.32,North,358,9.0,14.0,99,0.00,,,0.32,,2013-05-01 16:42:00,
2013-05-01 11:53:00,34.0,34.0,30.32,North,7,3.0,15.0,99,0.00,,,0.32,,2013-05-01 16:53:00,
2013-05-01 12:02:00,33.0,33.0,30.33,NNW,337,5.0,15.0,99,0.00,,,0.32,,2013-05-01 17:02:00,
2013-05-01 12:12:00,33.0,33.0,30.33,NNW,337,5.0,15.0,99,0.00,,,0.32,,2013-05-01 17:12:00,
2013-05-01 12:21:00,33.0,33.0,30.34,NNE,23,0.0,7.0,99,0.02,,,0.34,,2013-05-01 17:21:00,
2013-05-01 12:32:00,33.0,33.0,30.35,North,1,0.0,5.0,99,0.02,,,0.34,,2013-05-01 17:32:00,
2013-05-01 12:42:00,32.0,32.0,30.32,North,7,0.0,10.0,99,0.02,,,0.34,,2013-05-01 17:42:00,
2013-05-01 12:52:00,32.0,32.0,30.32,North,7,0.0,10.0,99,0.02,,,0.34,,2013-05-01 17:52:00,
2013-05-01 13:01:00,32.0,32.0,30.32,North,4,0.0,10.0,99,0.04,,,0.36,,2013-05-01 18:01:00,
2013-05-01 13:11:00,32.0,32.0,30.33,ENE,57,7.0,14.0,99,0.02,,,0.36,,2013-05-01 18:11:00,
2013-05-01 13:22:00,32.0,32.0,30.33,ENE,57,7.0,14.0,99,0.02,,,0.36,,2013-05-01 18:22:00,
2013-05-01 13:32:00,32.0,32.0,30.33,NNE,21,0.0,5.0,99,0.04,,,0.38,,2013-05-01 18:32:00,
2013-05-01 13:42:00,32.0,32.0,30.33,NNE,21,0.0,5.0,99,0.04,,,0.38,,2013-05-01 18:42:00,
2013-05-01 13:52:00,33.0,33.0,30.34,NNE,14,0.0,10.0,99,0.04,,,0.38,,2013-05-01 18:52:00,
2013-05-01 14:02:00,33.0,33.0,30.35,North,7,3.0,11.0,99,0.02,,,0.38,,2013-05-01 19:02:00,
2013-05-01 14:11:00,33.0,33.0,30.35,North,358,4.0,13.0,99,0.02,,,0.38,,2013-05-01 19:11:00,
2013-05-01 14:22:00,33.0,33.0,30.35,North,358,4.0,13.0,99,0.02,,,0.38,,2013-05-01 19:22:00,
2013-05-01 14:32:00,32.0,32.0,30.36,NNE,23,3.0,13.0,99,0.00,,,0.38,,2013-05-01 19:32:00,
2013-05-01 14:42:00,32.0,32.0,30.36,NNE,23,3.0,13.0,99,0.00,,,0.38,,2013-05-01 19:42:00,
2013-05-01 14:52:00,33.0,33.0,30.37,NNE,12,0.0,8.0,99,0.00,,,0.38,,2013-05-01 19:52:00,
2013-05-01 15:01:00,34.0,33.0,30.36,North,357,0.0,4.0,95,0.00,,,0.38,,2013-05-01 20:01:00,
2013-05-01 15:11:00,34.0,33.0,30.36,North,357,0.0,4.0,95,0.00,,,0.38,,2013-05-01 20:11:00,
2013-05-01 15:21:00,35.0,34.0,30.37,ENE,59,0.0,0.0,95,0.00,,,0.38,,2013-05-01 20:21:00,
2013-05-01 15:32:00,35.0,34.0,30.37,NNE,21,0.0,0.0,95,0.00,,,0.38,,2013-05-01 20:32:00,
2013-05-01 15:42:00,35.0,34.0,30.37,NNE,21,0.0,0.0,95,0.00,,,0.38,,2013-05-01 20:42:00,
2013-05-01 15:52:00,35.0,33.0,30.37,NNE,21,0.0,0.0,94,0.00,,,0.38,,2013-05-01 20:52:00,
2013-05-01 16:01:00,35.0,33.0,30.38,NNE,21,0.0,0.0,94,0.00,,,0.38,,2013-05-01 21:01:00,
2013-05-01 16:11:00,36.0,34.0,30.38,NNE,21,0.0,0.0,94,0.00,,,0.38,,2013-05-01 21:11:00,
2013-05-01 16:22:00,36.0,34.0,30.38,NNE,21,0.0,0.0,94,0.00,,,0.38,,2013-05-01 21:22:00,
2013-05-01 16:32:00,36.0,34.0,30.39,NNE,21,0.0,0.0,93,0.00,,,0.38,,2013-05-01 21:32:00,
2013-05-01 16:43:00,37.0,35.0,30.41,NNE,21,0.0,0.0,93,0.00,,,0.38,,2013-05-01 21:43:00,
2013-05-01 16:53:00,37.0,35.0,30.41,NNE,21,0.0,0.0,93,0.00,,,0.38,,2013-05-01 21:53:00,
2013-05-01 17:03:00,37.0,35.0,30.41,NNE,21,0.0,0.0,94,0.00,,,0.38,,2013-05-01 22:03:00,
2013-05-01 17:12:00,37.0,35.0,30.40,NNE,14,0.0,5.0,91,0.00,,,0.38,,2013-05-01 22:12:00,
2013-05-01 17:23:00,37.0,35.0,30.40,NNE,14,0.0,5.0,91,0.00,,,0.38,,2013-05-01 22:23:00,
2013-05-01 17:33:00,38.0,36.0,30.42,NNE,33,0.0,9.0,91,0.00,,,0.38,,2013-05-01 22:33:00,
2013-05-01 17:42:00,38.0,36.0,30.42,NNE,33,0.0,9.0,91,0.00,,,0.38,,2013-05-01 22:42:00,
2013-05-01 17:53:00,35.0,35.0,30.41,NNE,14,0.0,9.0,99,0.00,,,0.32,,2013-05-01 22:53:00,
2013-05-01 18:02:00,35.0,35.0,30.42,NE,39,0.0,8.0,99,0.00,,,0.32,,2013-05-01 23:02:00,
2013-05-01 18:11:00,35.0,35.0,30.42,SE,129,3.0,5.0,99,0.00,,,0.32,,2013-05-01 23:11:00,
2013-05-01 18:21:00,35.0,35.0,30.42,SE,129,3.0,5.0,99,0.00,,,0.32,,2013-05-01 23:21:00,
2013-05-01 18:32:00,36.0,36.0,30.42,ESE,113,0.0,3.0,99,0.00,,,0.32,,2013-05-01 23:32:00,
2013-05-01 18:42:00,36.0,36.0,30.42,ESE,113,0.0,3.0,99,0.00,,,0.32,,2013-05-01 23:42:00,
2013-05-01 18:52:00,36.0,36.0,30.42,East,94,0.0,5.0,99,0.00,,,0.32,,2013-05-01 23:52:00,
2013-05-01 19:01:00,36.0,36.0,30.42,ENE,67,0.0,0.0,99,0.00,,,0.32,,2013-05-02 00:01:00,
2013-05-01 19:11:00,36.0,36.0,30.42,ENE,67,0.0,0.0,99,0.00,,,0.32,,2013-05-02 00:11:00,
2013-05-01 19:21:00,37.0,37.0,30.42,ENE,67,0.0,0.0,99,0.00,,,0.32,,2013-05-02 00:21:00,
2013-05-01 19:32:00,37.0,37.0,30.43,ENE,67,0.0,0.0,99,0.00,,,0.32,,2013-05-02 00:32:00,
2013-05-01 19:41:00,37.0,37.0,30.43,ENE,67,0.0,0.0,99,0.00,,,0.32,,2013-05-02 00:41:00,
2013-05-01 19:52:00,37.0,37.0,30.44,ENE,67,0.0,0.0,99,0.00,,,0.32,,2013-05-02 00:52:00,
2013-05-01 20:01:00,37.0,36.0,30.45,ENE,67,0.0,0.0,98,0.00,,,0.32,,2013-05-02 01:01:00,
2013-05-01 20:11:00,37.0,36.0,30.44,ENE,67,0.0,0.0,98,0.00,,,0.32,,2013-05-02 01:11:00,
2013-05-01 20:21:00,37.0,36.0,30.44,ENE,67,0.0,0.0,98,0.00,,,0.32,,2013-05-02 01:21:00,
2013-05-01 20:32:00,37.0,37.0,30.44,ENE,67,0.0,0.0,99,0.00,,,0.32,,2013-05-02 01:32:00,
2013-05-01 20:42:00,37.0,37.0,30.44,ENE,67,0.0,0.0,99,0.00,,,0.32,,2013-05-02 01:42:00,
2013-05-01 20:52:00,37.0,37.0,30.45,ENE,67,0.0,0.0,99,0.00,,,0.32,,2013-05-02 01:52:00,
2013-05-01 21:01:00,37.0,37.0,30.45,ENE,67,0.0,0.0,99,0.00,,,0.32,,2013-05-02 02:01:00,
2013-05-01 21:11:00,37.0,37.0,30.45,ENE,67,0.0,0.0,99,0.00,,,0.32,,2013-05-02 02:11:00,
2013-05-01 21:21:00,37.0,37.0,30.45,ENE,67,0.0,0.0,99,0.00,,,0.32,,2013-05-02 02:21:00,
2013-05-01 21:32:00,37.0,37.0,30.46,ENE,67,0.0,0.0,99,0.00,,,0.32,,2013-05-02 02:32:00,
2013-05-01 21:42:00,37.0,37.0,30.46,ENE,67,0.0,0.0,99,0.00,,,0.32,,2013-05-02 02:42:00,
2013-05-01 21:51:00,37.0,37.0,30.46,ENE,67,0.0,0.0,99,0.00,,,0.32,,2013-05-02 02:51:00,
2013-05-01 22:01:00,38.0,38.0,30.46,ENE,67,0.0,4.0,99,0.00,,,0.32,,2013-05-02 03:01:00,
2013-05-01 22:11:00,38.0,35.0,30.46,NNE,33,0.0,5.0,88,0.00,,,0.32,,2013-05-02 03:11:00,
2013-05-01 22:22:00,38.0,35.0,30.46,NNE,33,0.0,5.0,88,0.00,,,0.32,,2013-05-02 03:22:00,
2013-05-01 22:33:00,39.0,34.0,30.47,NE,50,2.0,6.0,81,0.00,,,0.32,,2013-05-02 03:33:00,
2013-05-01 22:42:00,39.0,34.0,30.47,NE,50,2.0,6.0,81,0.00,,,0.32,,2013-05-02 03:42:00,
2013-05-01 22:53:00,39.0,33.0,30.47,NE,47,0.0,0.0,80,0.00,,,0.32,,2013-05-02 03:53:00,
2013-05-01 23:03:00,40.0,34.0,30.47,NE,36,0.0,0.0,79,0.00,,,0.32,,2013-05-02 04:03:00,
2013-05-01 23:12:00,40.0,34.0,30.47,ENE,59,0.0,0.0,80,0.00,,,0.32,,2013-05-02 04:12:00,
2013-05-01 23:23:00,40.0,34.0,30.47,ENE,59,0.0,0.0,80,0.00,,,0.32,,2013-05-02 04:23:00,
2013-05-01 23:33:00,40.0,34.0,30.47,ENE,61,0.0,0.0,80,0.00,,,0.32,,2013-05-02 04:33:00,
2013-05-01 23:42:00,40.0,34.0,30.47,ENE,61,0.0,0.0,80,0.00,,,0.32,,2013-05-02 04:42:00,
2013-05-01 23:52:00,40.0,34.0,30.48,NNE,32,0.0,3.0,78,0.00,,,0.32,,2013-05-02 04:52:00,